User: anonymous   Login
Location: *
(37.5724°S, 58.0067°E)
Time: 05:21:03
(UTC+00:00)
Language:

NOSS 3-1 (A) - Orbit

View from above orbital plane
View from above orbital plane
View from above satellite
View from above satellite

Ground track
Ground track

The orbit data is extracted from the following two-line orbital elements,

1 26905U 01040A   21204.88170199 0.00000000  00000-0  00000-0 0    02
2 26905  63.4042 164.1294 0503700   2.2013 357.7987 13.40795120    01
Epoch (UTC): 23 July 2021 21:09:39
Eccentricity: 0.0503700
inclination: 63.4042°
perigee height: 729 km
apogee height: 1483 km
right ascension of ascending node: 164.1294°
argument of perigee: 2.2013°
revolutions per day: 13.40795120
mean anomaly at epoch: 357.7987°
orbit number at epoch: 0

The dashed part of the orbit path shows where the satellite is in the earth's shadow,  

DLR